Flag for United Kingdom Weather past 2 weeks in Rotherham, England, United Kingdom

Now
59 °F

Cool.


Feels Like: 58 °F
Forecast: 51 / 69 °F
Wind: 7 mph from Southeast

Location: Nottingham Weather Centre

Current Time: Aug 2, 2014 at 7:58:50 AM

Latest Report: Aug 2, 2014 at 7:00 AM


Visibility: 3 mi

Pressure: 29.62 "Hg

Humidity: 100%

Dew point: 59 °F

Location of RotherhamLocation

Historic Weather in Rotherham — Graph

°F

Rotherham temperature yesterday

Maximum temperature yesterday: 74 °F (at 3:00 PM)
Minimum temperature yesterday: 57 °F (at 6:00 AM)
Average temperature yesterday: 63 °F

Past Weeks' High & Low Weather Summary

 TemperatureHumidityPressure
High81 °F (Jul 26, 5:00 PM)100% (Jul 18, 6:00 AM)30.29 "Hg (Jul 18, 6:00 AM)
Low53 °F (Jul 28, 5:00 AM)37% (Jul 26, 5:00 PM)29.63 "Hg (Aug 2, 6:00 AM)
Average65 °F79%29.99 "Hg
* Reported Jul 18 6:00 AM — Aug 2 6:00 AM, Rotherham, Weather by CustomWeather, © 2014

Note: Actual official high and low records may vary slightly from our data, if they occured in-between our weather recording intervals... More about our weather records

Advertising

Rotherham weather history for previous 24 hours

 ConditionsComfort  
Time TempWeatherWind HumidityBarometerVisibility
6:00 AM
Aug 2
59 °FFog.5 mph100%29.63 "Hg2 mi
5:00 AM59 °FFog.6 mph100%29.65 "Hg3 mi
4:00 AM59 °FFog.5 mph100%29.67 "Hg2 mi
3:00 AM59 °FFog.2 mph100%29.67 "Hg2 mi
2:00 AM60 °FFog.3 mph100%29.69 "Hg2 mi
1:00 AM60 °FFog.3 mph100%29.70 "Hg3 mi
12:00 AM60 °FFog.5 mph100%29.70 "Hg2 mi
11:00 PM
Aug 1
60 °FFog.2 mph100%29.70 "Hg2 mi
10:00 PM60 °FCool.3 mph100%29.71 "Hg3 mi
9:00 PM60 °FRain showers. Overcast.3 mph100%29.71 "Hg3 mi
8:00 PM61 °FRain. Cloudy.5 mph100%29.70 "Hg3 mi
7:00 PM65 °FSmoke.2 mph92%29.69 "Hg7 mi
6:00 PM65 °FMild.1 mph89%29.69 "Hg7 mi
5:00 PM63 °FLight mixture of precip. Cloudy.7 mph88%29.70 "Hg1 mi
4:00 PM66 °FLots of rain. Cloudy.8 mph80%29.70 "Hg2 mi
3:00 PM74 °FMild.9 mph51%29.69 "Hg9 mi
2:00 PM73 °FMild.9 mph56%29.71 "Hg7 mi
1:00 PM72 °FMild.8 mph63%29.72 "Hg7 mi
12:00 PM68 °FMild.8 mph76%29.74 "Hg7 mi
11:00 AM67 °FMild.7 mph81%29.76 "Hg6 mi
10:00 AM64 °FMild.8 mph85%29.78 "Hg6 mi
9:00 AM63 °FMild.6 mph90%29.78 "Hg6 mi
8:00 AM60 °FFog.6 mph97%29.78 "Hg6 mi
7:00 AM58 °FFog.3 mph100%29.78 "Hg6 mi
Weather by CustomWeather, © 2014

See weather overviewHow to use our weather pages